TimeEST,TemperatureF,Dew PointF,Humidity,Sea Level PressureIn,VisibilityMPH,Wind Direction,Wind SpeedMPH,Gust SpeedMPH,PrecipitationIn,Events,Conditions,WindDirDegrees,DateUTC
12:41 AM,33.8,33.8,100,30.04,5.0,Calm,Calm,-,N/A,,Overcast,0,2012-12-08 05:41:00
12:50 AM,33.8,33.8,100,30.04,5.0,Calm,Calm,-,N/A,,Overcast,0,2012-12-08 05:50:00
12:53 AM,33.1,33.1,100,30.05,5.0,Calm,Calm,-,N/A,,Overcast,0,2012-12-08 05:53:00
1:53 AM,33.1,33.1,100,30.05,7.0,Calm,Calm,-,N/A,,Overcast,0,2012-12-08 06:53:00
2:11 AM,33.8,32.0,93,30.05,7.0,Calm,Calm,-,N/A,,Overcast,0,2012-12-08 07:11:00
2:35 AM,33.8,33.8,100,30.04,7.0,Calm,Calm,-,N/A,,Overcast,0,2012-12-08 07:35:00
2:53 AM,32.0,32.0,100,30.04,7.0,Calm,Calm,-,N/A,,Overcast,0,2012-12-08 07:53:00
3:00 AM,30.2,30.2,100,30.03,1.0,Calm,Calm,-,N/A,,Overcast,0,2012-12-08 08:00:00
3:08 AM,30.2,30.2,100,30.03,4.0,NNW,3.5,-,N/A,,Overcast,340,2012-12-08 08:08:00
3:53 AM,30.0,30.0,100,30.03,6.0,Calm,Calm,-,N/A,,Partly Cloudy,0,2012-12-08 08:53:00
4:43 AM,26.6,26.6,100,30.03,2.0,Calm,Calm,-,N/A,,Scattered Clouds,0,2012-12-08 09:43:00
4:53 AM,27.0,26.1,96,30.04,0.8,Calm,Calm,-,N/A,,Mostly Cloudy,0,2012-12-08 09:53:00
5:04 AM,26.6,26.6,100,30.03,0.8,Calm,Calm,-,N/A,,Mostly Cloudy,0,2012-12-08 10:04:00
5:34 AM,28.4,28.4,100,30.03,0.2,Calm,Calm,-,N/A,Fog,Light Freezing Fog,0,2012-12-08 10:34:00
5:46 AM,28.4,28.4,100,30.03,0.2,Calm,Calm,-,N/A,Fog,Light Freezing Fog,0,2012-12-08 10:46:00
5:53 AM,26.6,26.6,100,30.03,0.2,Calm,Calm,-,N/A,Fog,Light Freezing Fog,0,2012-12-08 10:53:00
6:17 AM,26.6,26.6,100,30.03,0.1,Calm,Calm,-,N/A,Fog,Light Freezing Fog,0,2012-12-08 11:17:00
6:53 AM,28.4,26.6,93,30.04,0.1,Calm,Calm,-,N/A,Fog,Light Freezing Fog,0,2012-12-08 11:53:00
7:49 AM,30.2,28.4,93,30.04,0.2,Calm,Calm,-,N/A,Fog,Light Freezing Fog,0,2012-12-08 12:49:00
7:53 AM,30.0,30.0,100,30.05,0.1,Calm,Calm,-,N/A,Fog,Light Freezing Fog,0,2012-12-08 12:53:00
8:53 AM,30.9,30.9,100,30.05,0.2,Calm,Calm,-,N/A,Fog,Light Freezing Fog,0,2012-12-08 13:53:00
9:53 AM,33.1,33.1,100,30.03,1.0,Calm,Calm,-,N/A,,Overcast,0,2012-12-08 14:53:00
10:53 AM,34.0,34.0,100,30.00,2.0,North,4.6,-,0.00,Rain,Light Rain,360,2012-12-08 15:53:00
11:53 AM,34.0,33.1,96,29.96,3.0,North,6.9,-,0.01,Rain,Light Rain,350,2012-12-08 16:53:00
12:20 PM,33.8,33.8,100,29.95,1.5,North,5.8,-,0.01,Rain,Light Rain,10,2012-12-08 17:20:00
12:53 PM,34.0,33.1,96,29.95,1.5,North,5.8,-,0.05,Rain,Light Rain,360,2012-12-08 17:53:00
1:53 PM,35.1,35.1,100,29.91,1.5,North,4.6,-,0.05,Rain,Light Rain,10,2012-12-08 18:53:00
2:53 PM,35.1,34.0,96,29.91,1.8,North,5.8,-,0.00,Rain,Light Rain,10,2012-12-08 19:53:00
3:53 PM,35.1,34.0,96,29.89,1.2,North,4.6,-,0.00,,Overcast,350,2012-12-08 20:53:00
4:53 PM,35.1,34.0,96,29.89,1.0,North,5.8,-,N/A,,Overcast,360,2012-12-08 21:53:00
5:53 PM,35.1,35.1,100,29.87,1.0,North,5.8,-,N/A,,Overcast,10,2012-12-08 22:53:00
6:53 PM,35.1,35.1,100,29.87,1.0,NW,4.6,-,N/A,,Overcast,310,2012-12-08 23:53:00
7:00 PM,35.6,35.6,100,29.85,0.5,Calm,Calm,-,N/A,,Overcast,0,2012-12-09 00:00:00
7:53 PM,35.1,35.1,100,29.85,0.2,Calm,Calm,-,N/A,Fog,Fog,0,2012-12-09 00:53:00
8:53 PM,34.0,34.0,100,29.86,0.2,West,3.5,-,N/A,Fog,Fog,270,2012-12-09 01:53:00
9:53 PM,34.0,34.0,100,29.86,0.2,SW,3.5,-,N/A,Fog,Fog,230,2012-12-09 02:53:00
10:53 PM,33.8,33.8,100,29.85,0.2,Calm,Calm,-,N/A,Fog,Fog,0,2012-12-09 03:53:00
11:51 PM,33.8,33.8,100,29.86,2.0,Calm,Calm,-,N/A,,Overcast,0,2012-12-09 04:51:00
11:53 PM,34.0,34.0,100,29.87,2.0,Calm,Calm,-,N/A,,Overcast,0,2012-12-09 04:53:00